Location: Clanezzo
(45.7500°N, 9.6000°E)
Time: 04:21:54
(UTC+00:00)

Cosmos 1437 - Pass Details

Date: 12 May 2021
Orbit: 337 x 343 km, 81.2° (Epoch: 18 June)

Event Time Altitude Azimuth Distance (km) Brightness Sun altitude
Exits shadow 19:55:26 12° 175° (S) 1,206 4.6 -11.2°
Maximum altitude 19:57:57 53° 98° (E) 443 2.5 -11.5°
Drops below altitude 10° 20:00:47 10° 20° (NNE) 1,336 5.6 -11.9°
Sets 20:02:46 0° 15° (NNE) 2,185 6.8 -12.2°
